Regional Weather Roundup
Issued by NWS

Home | Current Version | Previous Version | Graphics & Text | Print | Product List | Glossary On
Versions: 1 2 3 4 5 6 7 8 9 10 11 12 13 14 15 16 17 18 19 20 21 22 23 24 25 26 27 28 29 30 31 32 33 34 35 36 37 38 39 40 41 42 43 44 45 46 47 48 49 50
000
ASUS43 KLSX 222057
RWRMO

WEATHER SUMMARY FOR MISSOURI
NATIONAL WEATHER SERVICE SPRINGFIELD MO
400 PM CDT SUN OCT 22 2017

NOTE: "FAIR" INDICATES FEW OR NO CLOUDS BELOW 12,000 FEET WITH NO
       SIGNIFICANT WEATHER AND/OR OBSTRUCTIONS TO VISIBILITY.
       CURRENT SKY AND/OR WEATHER CONDITIONS ARE NOT AVAILABLE FOR
       CHILLICOTHE AND FARMINGTON.

MOZ001>031-035>038-043-044-053-054-222200-
...NORTHERN AND WESTERN MISSOURI...

CITY           SKY/WX    TMP DP  RH WIND       PRES   REMARKS
KANSAS CTY INT MOSUNNY   66  37  34 NW6       30.10S
LEE`S SUMMIT   CLOUDY    64  39  39 N10       30.11S
ST JOSEPH      SUNNY     69  35  28 W7        30.08F HAZE
CHILLICOTHE      N/A     61  45  55 CALM      30.11R

$$
MOZ066>068-077>081-088>096-101>105-222200-
...SOUTHWEST MISSOURI...

CITY           SKY/WX    TMP DP  RH WIND       PRES   REMARKS
SPRINGFIELD    LGT RAIN  52  50  93 N9        30.12S
JOPLIN         MOSUNNY   64  46  52 N6        30.13F
BRANSON        LGT RAIN  50  50 100 NW10G17   30.12R FOG

$$
MOZ032>034-039>042-045>050-055>058-069>072-222200-
...CENTRAL MISSOURI...

CITY           SKY/WX    TMP DP  RH WIND       PRES   REMARKS
COLUMBIA       NOT AVBL
JEFFERSON CITY LGT RAIN  54  49  83 NW7       30.11R
ROLLA          LGT RAIN  51  50  96 NW10      30.09R FOG
SEDALIA        CLOUDY    57  50  77 NW3       30.12F
WARRENSBURG    CLOUDY    59  45  58 NW7       30.11S

$$
MOZ051-052-059>065-222200-
...EAST CENTRAL MISSOURI...

CITY           SKY/WX    TMP DP  RH WIND       PRES   REMARKS
ST LOUIS INTL  CLOUDY    55  52  89 N9        30.05S

$$
MOZ072>076-082>087-097>100-106>115-222200-
...SOUTH CENTRAL AND SOUTHEAST MISSOURI...

CITY           SKY/WX    TMP DP  RH WIND       PRES   REMARKS
CAPE GIRARDEAU RAIN      69  65  86 SW7       29.95R FOG
POPLAR BLUFF   LGT RAIN  67  65  93 CALM      29.95S FOG
WEST PLAINS    LGT RAIN  54  51  90 N8G17     30.06S

$$


USA.gov is the U.S. government's official web portal to all federal, state and local government web resources and services.